Location: Wellington Chase on the Rappahannock
(38.3381°N, 77.6004°W)
Time: 05:46:27
(UTC+00:00)

Daily predictions for brighter satellites

Satellite Brightness Start Highest point End
(mag) Time Altitude Azimuth Time Altitude Azimuth Time Altitude Azimuth
RESURS DK-1 3.1 00:03:05 10° NNW 00:05:59 45° NW 00:05:59 45° NW
Okean 2 Rocket 3.2 00:02:54 10° SSW 00:07:17 70° W 00:08:01 57° NNW
Nadezhda 4 Rocket 3.9 00:04:29 10° N 00:10:47 85° W 00:17:00 10° S
ATLAS 2AS CENTAUR R/B 4.4 00:08:23 10° N 00:10:49 15° NNE 00:10:49 15° NNE
SJ 16-02 1.8 00:10:58 10° SSW 00:15:05 57° W 00:15:05 57° W
ISS -1.1 00:12:52 10° WNW 00:14:17 16° NW 00:14:17 16° NW
ATLAS 2A CENTAUR R/B 4.2 00:08:22 10° WSW 00:16:10 23° S 00:17:16 22° S
Cosmos 1536 Rocket 4.5 00:16:01 10° NNW 00:26:52 - S 00:19:15 43° NW
Cosmos 2195 Rocket 4.3 00:18:17 10° N 00:24:38 82° E 00:25:05 76° SE
ATLAS 5 CENTAUR R/B 3.8 00:21:12 10° WNW 00:25:30 30° WSW 00:30:34 10° S
Cosmos 371 Rocket 4.1 00:27:50 10° SSW 00:31:38 47° WSW 00:31:38 47° WSW
USA 281 4.2 01:07:16 38° NNW 01:07:16 38° NNW 01:11:05 10° NNW
Cosmos 2082 Rocket 4.4 01:25:21 10° NW 01:28:04 21° WNW 01:28:04 21° WNW
Cosmos 2237 Rocket 4.3 08:43:08 19° NNE 08:43:08 19° NNE 08:44:44 10° NNE
Cosmos 2278 Rocket 3.9 08:43:28 26° SE 08:43:28 26° SE 08:46:03 10° SE
Cosmos 1943 Rocket 4.0 08:46:29 23° SE 08:46:29 23° SE 08:48:31 10° SE
USA 267 3.5 08:47:58 10° NE 08:53:32 66° ENE 08:53:32 66° ENE
ATLAS 3B R/B 4.4 08:55:08 10° S 09:01:31 33° ESE 09:08:13 10° NE
Atlas 2A Centaur Rocket 4.4 09:18:28 19° SSE 09:18:28 19° SSE 09:20:08 10° SE
Cosmos 2292 Rocket 4.5 09:20:13 56° NE 09:20:13 56° NE 09:25:11 10° N
USA 234 4.4 09:22:55 10° E 09:28:41 34° NNE 09:31:50 23° NNW
Cosmos 1864 Rocket 4.3 09:30:11 35° NNW 09:33:02 80° W 09:39:23 10° S
SL-16 R/B 4.4 09:31:27 10° SSW 09:32:31 15° SSW 09:32:31 15° SSW
Cosmos 1624 Rocket 4.1 09:34:26 25° S 09:37:25 70° ESE 09:42:34 10° NNE
Cosmos 2061 Rocket 4.4 09:33:43 10° N 09:39:52 63° E 09:45:59 10° SSE
Cosmos 2251 Rocket 3.7 09:38:22 34° N 09:40:40 70° ENE 09:46:00 10° SSE
SL-16 R/B 2.7 09:37:03 10° S 09:42:37 60° ESE 09:48:13 10° NNE
PAYLOAD A 4.2 09:41:23 10° N 09:45:53 56° NNW 09:45:53 56° NNW
Cosmos 1725 Rocket 3.9 09:41:07 10° NNW 09:47:23 68° W 09:53:36 10° S
Cosmos 2233 Rocket 4.0 09:43:05 10° N 09:49:24 84° E 09:55:37 10° S
BREEZE-M DEB (TANK) 3.1 09:54:02 35° E 09:54:02 35° E 09:56:04 10° ENE
Cosmos 2346 Rocket 4.4 09:54:49 10° S 10:00:57 86° E 10:07:04 10° N
CZ-2C R/B 4.0 09:56:32 10° N 09:58:22 21° NNW 09:58:22 21° NNW
SJ-11-01 4.2 10:00:35 10° NNE 10:05:18 87° WNW 10:10:00 10° SSW
SL-08 R/B 4.5 10:02:11 10° NNW 10:08:12 57° W 10:14:18 10° S
Cosmos 1802 Rocket 4.3 10:06:58 30° NW 10:09:14 39° W 10:14:55 10° SSW
Cosmos 1190 Rocket 3.9 10:15:29 21° NNW 10:18:59 61° WSW 10:24:06 10° S
Aureole 3 4.1 10:13:18 10° SSW 10:19:23 67° W 10:24:32 10° N
SKYMED 2 3.9 10:15:07 10° SSE 10:19:24 66° ENE 10:23:44 10° N
SJ 16-02 1.1 10:18:05 20° NNW 10:21:02 79° WSW 10:25:16 10° SSE
Cosmos 676 Rocket 4.0 10:16:11 10° NNW 10:21:25 82° ENE 10:26:35 10° SSE
COSMO-SKYMED 1 3.4 10:18:16 10° SSE 10:22:12 47° ENE 10:26:10 10° N
Cosmos 2237 Rocket 3.8 10:24:59 17° NW 10:24:59 17° NW 10:27:29 10° N
Cosmos 2278 Rocket 3.5 10:25:23 20° WSW 10:25:23 20° WSW 10:28:20 10° SSW
Cosmos 2056 Rocket 3.9 10:21:55 14° SW 10:26:14 40° WNW 10:31:19 10° N
Cosmos 1943 Rocket 3.7 10:28:04 16° WSW 10:28:04 16° WSW 10:30:00 10° SW
USA 229 DEB 3.3 10:25:05 10° SW 10:30:50 68° NW 10:37:16 10° NNE
USA 229 3.3 10:25:18 10° SW 10:31:03 68° NW 10:37:28 10° NNE
Cosmos 1025 Rocket 4.3 10:27:56 10° SSE 10:32:03 43° E 10:36:11 10° NNE
Cosmos 1954 Rocket 4.0 10:28:36 13° NNW 10:33:08 56° WSW 10:38:08 10° S
Cosmos 1943 4.0 10:27:51 10° S 10:33:17 55° ESE 10:38:45 10° NNE
Cosmos 2369 Rocket 2.8 10:30:55 10° NNW 10:36:33 57° ENE 10:42:08 10° SE
USA 267 4.0 10:31:23 10° NNE 10:37:07 34° NNW 10:40:54 19° W
Cosmos 1674 Rocket 3.7 10:33:20 10° S 10:37:43 76° E 10:42:09 10° N
IRS-1D 3.6 10:37:27 10° N 10:42:10 47° WNW 10:46:52 10° SW
SWARM C 4.4 10:40:13 10° S 10:43:30 66° W 10:46:48 10° N
SWARM A 4.1 10:40:19 10° S 10:43:36 82° W 10:46:56 10° N
Cosmos 1484 Rocket 3.1 10:40:15 10° NNE 10:43:45 60° E 10:47:11 10° S
Cosmos 1400 Rocket 3.0 10:40:45 10° N 10:44:25 65° E 10:48:01 10° SSE
RUBIN 8/PSLV 4.5 10:42:09 10° N 10:46:32 80° WNW 10:50:54 10° SSW
Cosmos 1513 Rocket 4.5 10:41:27 10° N 10:47:51 82° W 10:54:07 10° S
Helios 1A Rocket 2.4 10:45:45 10° S 10:49:04 58° WSW 10:52:24 10° NNW
Cosmos 2221 Rocket 4.1 10:44:41 10° S 10:49:08 64° E 10:53:37 10° NNE
Cosmos 1869 3.7 10:47:38 15° NW 10:49:54 30° W 10:52:59 10° SSW
Cosmos 371 Rocket 3.6 10:45:55 10° NNW 10:50:32 46° WSW 10:55:07 10° S
ATLAS 3B R/B 3.1 10:44:39 10° SW 10:51:55 54° NW 10:59:36 10° NNE
Cosmos 968 Rocket 3.7 10:47:58 10° NNW 10:53:13 77° ENE 10:58:27 10° SSE
Cosmos 1812 2.6 10:53:55 12° NNW 10:56:16 33° W 10:58:54 10° SSW
CZ-4 R/B 4.4 10:53:02 10° N 10:57:25 36° WNW 11:01:42 10° SW
Cosmos 304 Rocket 4.3 10:53:45 10° NW 10:58:06 36° WSW 11:02:25 10° SSW
CENTAUR R/B 3.6 10:50:29 10° NNW 10:59:06 75° NE 11:08:36 10° SE
Cosmos 2151 Rocket 3.5 10:55:52 10° N 11:00:22 82° W 11:04:48 10° S
Cosmos 1110 Rocket 4.1 10:56:35 10° SW 11:01:43 52° WNW 11:06:54 10° N
Cosmos 1378 Rocket 4.1 11:01:27 10° SW 11:05:20 34° WNW 11:09:15 10° NNW
Sich 1 Rocket 3.8 11:03:25 10° N 11:07:57 76° E 11:12:24 10° SSE
USA 234 3.3 11:04:43 10° SE 11:11:17 78° SW 11:17:52 10° NW
Cosmos 1656 Rocket 4.3 11:07:12 10° NW 11:12:19 35° WSW 11:17:22 10° SSW
Thor Agena Rocket 4.0 11:07:29 10° NNE 11:12:39 66° ESE 11:17:42 10° S
Cosmos 1818 3.8 11:08:15 10° SSW 11:13:39 77° ESE 11:19:05 10° NNE
ATLAS CENTAUR Rocket 4.4 11:10:08 10° SSW 11:14:00 25° SSE 11:22:36 10° E
Okean 1 Rocket 3.0 11:13:02 10° N 11:17:22 85° W 11:21:39 10° S
Cosmos 332 Rocket 3.8 11:14:38 10° NNW 11:19:26 89° ENE 11:24:12 10° SSE
CZ-3 R/B 2.8 11:08:43 10° WSW 11:19:39 38° SSW 11:24:15 10° SE
Meteor 2-17 Rocket 4.5 11:14:04 10° SSW 11:20:01 59° W 11:26:03 10° N
SL-16 R/B 3.5 11:23:03 10° W 11:27:08 20° NW 11:31:13 10° N
